map of FEZ home
FEZ - Airport
Location
City:  Fez, Fès-Dar-Dbibegh, Morocco
Near (Alt.):Fes
Name:Saïss Airport
ICAO:GMFF
IATA:FEZ

Details
Type:Airport (Aerodrome, Airfield)
Use:Public/Civil, International (customs port of entry)
Latitude:33°55'38"N (33.927261)
Longitude:4°58'41"W (-4.977957)
Datum:WGS 1984
Elevation:1900 ft (579 m)
Variation:1.03°W (WMM2015 magnetic declination)
0.11° annual change
Runways:1
Longest:10499 × 148 ft (3200 × 45 m), paved

Time
Time Zone:UTC+0 (DST+1)
Local Time:

Weather
METAR:GMFF 151700Z 28003KT 9999 BKN033 BKN100 14/09 Q1019 NOSIG
TAF:GMFF 151700Z 1518/1624 28006KT 9999 BKN033 BKN100 PROB40
TEMPO 1521/1615 28010KT 5000 RA BKN010 BKN030

Related Locations
Nearby:
Farthest:KKE: 12322 mi / 19830 km
Kerikeri/Bay of Islands, NTL, NZ

Find:

   beyond  
but within

Other Information
Maps:
NOTAMs:
Links:
Sources:

  
flag of Morocco   

Sectional Chart

Flight Planning
at skyvector.com

Satellite Image

Google Maps Satellite view

 

Copyright © 2004-2017 Karl L. Swartz. All rights reserved.
The Great Circle Mapper name and logo are trademarks of the Great Circle Mapper.
All other trademarks mentioned herein belong to their respective owners.
Please see credits for attibutions and further copyright information.

  Follow gcmap on Facebook Follow gcmap on Twitter Follow gcmap on Google+ GCmap on LinkedIn

hCard Microformat

Geo Microformat